STARLINK-2056 (47665 NORAD) Tracking and Keplerian Element Data
This shows tracking and keplerian element data for the satellite.
Feedback or suggestion? Click here.
Element | Value |
Catalog | 47665 |
Name | STARLINK-2056 |
Epoch Orbit | 176 |
Epoch Day | 105.91667824 |
Epoch Year | 2021 |
RAAN | 169.266 |
Inclination | 53.0461 |
Eccentricity | 0.000603 |
Argument of Perigee | 278.2102 |
Mean Anonmoly | 35.5845 |
Mean Motion | 15.65643272 |
Decay Rate | -0.00480003 |
L1 | 1 47665U 21012AX 21105.91667824 -.00480003 00000-0 -49412-2 0 9995 |
L2 | 2 47665 53.0461 169.2660 0006030 278.2102 35.5845 15.65643272 1765 |
Live tracking and technical data element details for STARLINK-2056 (NORAD 47665). STARLINK-2056 can be tracked NOW for your location showing map with azimuth and elevation plus other details from your city location.
Track the satellite on the map from your city or location and see movement details for azimuth, elevation, latitude, longitude, range, height, and movement on the map or in text.
IsCatalogInMostPopularTable: catalog: 47665, numindb: 32
Update: records affected: 1
GetName: 47665 STARLINK-2056
Hit Count: updated at: Fri, 16 Apr 2021 12:10:03 GMT